Voltar ao catálogo

TAURUS 2

AtivoComunicaçõesVLEO
NORAD 66306·PAYLOAD·🇹🇷 Turkey
Este nome de satélite ainda não foi confirmado por fontes oficiais.

Lançado Nov 2, 2025 de Cape Canaveral Space Force Station

Loading…

Próximas Passagens (próximas 24 horas)

TLE

AtualizadoSource: Space-Track

Época: Sep 14, 2026, 14:46 UTC

1 66306U 25248P   26257.61561480  .00014163  00000-0  48828-3 0  9993
2 66306  45.4033 348.2284 0011072 229.3020 130.6908 15.29942999 48280

Acompanhe TAURUS 2 em tempo real com AllMySat

Download on the App Store